User: anonymous   Login
Location: Ch�tillon
(48.8024°N, 2.2935°E)
Time: 16:44:59
(UTC+00:00)
Language:

DIWATA 2B (PO-101) - Orbit

View from above orbital plane
View from above orbital plane
View from above satellite
View from above satellite

Ground track
Ground track

The orbit data is extracted from the following two-line orbital elements,

1 43678U 18084H   22229.26905204  .00000864  00000-0  90412-4 0  9992
2 43678  97.9786   3.2763 0011278  85.3588 274.8976 14.92256365206928
Epoch (UTC): 17 August 2022 06:27:26
Eccentricity: 0.0011278
inclination: 97.9786°
perigee height: 583 km
apogee height: 599 km
right ascension of ascending node: 3.2763°
argument of perigee: 85.3588°
revolutions per day: 14.92256365
mean anomaly at epoch: 274.8976°
orbit number at epoch: 20692

The dashed part of the orbit path shows where the satellite is in the earth's shadow,  

DLR